SCP
0 0 0 0 0 0 0 0 0 0 0 0 0 0 0 0 1 1 2 2 2 2 1 0 0 0 0 0 0 0 0 0 0 0 0 0 0 0 0 0 0 0 0 0
0 0 0 0 0 0 0 0 0 0 0 0 0 0 0 0 1 1 1 1 2 2 1 1 0 0 0 0 0 0 0 0 0 0 0 0 0 0 0 0 0 0 0 0
0 0 0 0 0 0 0 0 0 0 0 0 0 0 0 0 0 0 0 1 2 2 2 1 1 1 0 0 0 0 0 0 0 0 0 0 0 0 0 0 0 0 0 0
0 0 0 0 0 0 0 0 0 0 0 0 0 0 0 0 1 1 1 1 1 2 2 1 1 1 0 0 0 0 0 0 0 0 0 0 0 0 0 0 0 0 0 0
0 0 0 0 0 0 0 0 0 0 0 0 0 0 0 0 0 1 1 1 2 2 2 1 1 0 0 0 0 0 0 0 0 0 0 0 0 0 0 0 0 0 0 0
0 0 0 0 0 0 0 0 0 0 0 0 0 0 0 0 0 1 2 2 3 3 3 2 1 0 0 0 0 0 0 0 0 0 0 0 0 0 0 0 0 0 0 0
0 0 0 0 0 0 0 0 0 0 0 0 0 0 0 0 0 1 2 3 4 4 3 2 1 0 0 0 0 0 0 0 0 0 0 0 0 0 0 0 0 0 0 0
0 0 0 0 0 0 0 0 0 0 0 0 0 0 0 0 0 1 3 4 4 3 2 1 0 0 0 0 0 0 0 0 0 0 0 0 0 0 0 0 0 0 0 0
0 0 0 0 0 0 0 0 0 0 0 0 0 0 0 0 1 2 3 4 3 2 1 0 0 0 0 0 0 0 0 0 0 0 0 0 0 0 0 0 0 0 0 0
0 0 0 0 0 0 0 0 0 0 0 0 0 0 0 0 1 2 3 3 2 1 0 0 0 0 0 0 0 0 0 0 0 0 0 0 0 0 0 0 0 0 0 0
0 0 0 0 0 0 0 0 0 0 0 0 0 0 0 0 1 2 2 2 1 1 0 0 0 0 0 0 0 0 0 0 0 0 0 0 0 0 0 0 0 0 0 0
0 0 0 0 0 0 0 0 0 0 0 0 0 0 0 0 1 1 2 1 1 0 0 0 0 0 0 0 0 0 0 0 0 0 0 0 0 0 0 0 0 0 0 0
0 0 0 0 0 0 0 0 0 0 0 0 0 0 0 0 1 1 1 1 0 0 0 0 0 0 0 0 0 0 0 0 0 0 0 0 0 0 0 0 0 0 0 0
0 0 0 0 0 0 0 0 0 0 0 0 0 0 0 0 1 1 1 1 0 0 0 0 0 0 0 0 0 0 0 0 0 0 0 0 0 0 0 0 0 0 0 0
0 0 0 0 0 0 0 0 0 0 0 0 0 0 0 0 0 1 1 0 0 0 0 0 0 0 0 0 0 0 0 0 0 0 0 0 0 0 0 0 0 0 0 0
0 0 0 0 0 0 0 0 0 0 0 0 0 0 0 0 0 0 0 0 0 0 0 0 0 0 0 0 0 0 0 0 0 0 0 0 0 0 0 0 0 0 0 0
0 0 0 0 0 0 0 0 0 0 0 0 0 0 0 0 0 0 0 0 0 0 0 0 0 0 0 0 0 0 0 0 0 0 0 0 0 0 0 0 0 0 0 0
0 0 0 0 0 0 0 0 0 0 0 0 0 0 0 0 0 0 0 0 0 0 0 0 0 0 0 0 0 0 0 0 0 0 0 0 0 0 0 0 0 0 0 0
0 0 0 0 0 0 0 0 0 0 0 0 0 0 0 0 0 0 0 0 0 0 0 0 0 0 0 0 0 0 0 0 0 0 0 0 0 0 0 0 0 0 0 0
0 0 0 0 0 0 0 0 0 0 0 0 0 0 0 0 0 0 0 0 0 0 0 0 0 0 0 0 0 0 0 0 0 0 0 0 0 0 0 0 0 0 0 0
0 0 0 0 0 0 0 0 0 0 0 0 0 0 0 0 0 0 0 0 0 0 0 0 0 0 0 0 0 0 0 0 0 0 0 0 0 0 0 0 0 0 0 0
0 0 0 0 0 0 0 0 0 0 0 0 0 0 0 0 0 0 0 0 0 0 0 0 0 0 0 0 0 0 0 0 0 0 0 0 0 0 0 0 0 0 0 0
0 0 0 0 0 0 0 0 0 0 0 0 0 0 0 0 0 0 0 0 0 0 0 0 0 0 0 0 0 0 0 0 0 0 0 0 0 0 0 0 0 0 0 0
0 0 0 0 0 0 0 0 0 0 0 0 0 0 0 0 0 0 0 0 0 0 0 0 0 0 0 0 0 0 0 0 0 0 0 0 0 0 0 0 0 0 0 0
0 0 0 0 0 0 0 0 0 0 0 0 0 0 0 0 0 0 0 0 0 0 0 0 0 0 0 0 0 0 0 0 0 0 0 0 0 0 0 0 0 0 0 0
0 0 0 0 0 0 0 0 0 0 0 0 0 0 0 0 0 0 0 0 0 0 0 0 0 0 0 0 0 0 0 0 0 0 0 0 0 0 0 0 0 0 0 0
Wind_Speed
3 4 4 6 7 6 4 2 6 7 3 2 2 3 4 2 3 5 7 10 13 10 8 8 6 5 5 5 5 5 7 6 5 4 4 5 4 4 5 6 8 7 7 7
3 4 9 5 3 3 3 2 6 8 1 2 1 1 2 4 2 2 3 3 5 9 9 7 6 5 6 6 6 6 6 5 4 4 4 5 5 5 4 4 7 7 8 7
9 7 3 5 5 4 4 4 6 8 2 1 2 3 1 2 3 5 5 5 5 9 11 9 8 8 7 7 7 7 7 7 7 6 6 6 4 4 4 5 4 7 8 8
7 8 4 4 5 6 5 8 8 7 2 4 3 4 5 1 1 4 6 7 8 8 10 10 10 10 9 9 9 9 9 9 8 7 8 8 6 4 4 3 4 6 7 7
9 7 8 9 11 9 9 6 4 5 4 2 1 4 7 1 5 8 10 9 9 10 11 12 12 12 11 10 10 10 11 11 10 9 9 9 8 5 3 4 5 5 5 5
8 5 8 10 9 8 6 3 5 4 4 2 7 7 7 8 11 10 13 12 12 11 13 13 13 13 12 11 11 10 11 11 10 10 9 9 7 5 5 4 3 3 2 3
6 6 5 5 2 2 4 4 4 5 4 7 5 6 11 10 9 11 16 15 13 13 13 14 14 13 12 12 10 10 11 9 8 9 7 6 6 5 4 2 2 1 1 2
7 9 8 9 10 9 6 9 8 6 7 8 3 8 9 7 6 9 14 15 14 13 13 14 14 13 12 11 9 9 9 7 6 7 5 4 4 3 2 1 1 1 2 2
8 10 5 7 7 10 7 7 8 7 3 4 7 6 5 3 3 13 17 17 16 14 15 16 15 13 12 11 8 8 8 6 5 5 5 3 3 2 2 1 1 1 2 2
8 6 7 5 4 4 9 8 6 7 6 7 7 5 7 8 13 16 19 18 15 15 15 15 13 12 11 9 7 7 6 6 5 5 4 3 2 1 0 1 2 2 3 3
4 5 5 1 8 11 6 6 6 6 6 7 7 10 7 11 17 19 18 17 18 18 17 14 12 12 11 11 9 8 7 6 5 4 3 2 1 1 1 2 3 3 3 4
3 4 3 5 4 3 6 8 9 6 7 5 5 10 6 7 11 15 18 18 18 18 15 13 11 10 8 8 7 7 6 5 4 2 1 2 1 1 1 3 4 4 4 5
2 4 3 6 6 7 4 2 4 5 5 4 4 10 6 4 9 12 17 18 18 17 15 13 11 9 8 6 4 3 2 3 2 0 2 2 2 2 3 5 5 5 5 6
4 4 4 4 3 4 3 2 2 4 4 4 7 6 1 4 11 15 18 19 19 18 16 14 11 9 8 6 4 3 2 2 1 1 2 3 4 5 6 6 6 6 6 7
5 4 0 2 3 2 3 3 3 4 6 7 6 6 8 12 15 18 19 20 20 19 17 14 11 9 8 7 5 4 3 2 1 2 3 4 5 5 6 6 6 6 7 8
4 2 1 3 3 4 4 5 5 5 4 4 3 7 3 7 9 14 18 20 20 19 17 14 12 11 9 7 5 4 3 2 2 3 4 4 5 6 7 7 6 6 8 8
1 2 2 3 5 5 7 5 4 5 3 4 7 6 6 7 12 14 15 16 16 17 16 14 12 10 7 6 5 5 2 2 3 4 5 5 5 7 8 8 7 7 7 6
3 3 3 2 1 7 9 3 2 3 3 2 3 2 7 8 7 7 6 9 12 14 14 12 10 7 5 4 3 2 2 3 3 4 5 6 6 6 6 6 7 7 6 5
3 5 4 3 3 7 8 4 3 2 5 1 2 8 11 14 12 8 6 8 7 8 9 8 7 6 5 4 3 2 2 2 3 4 5 6 6 5 6 8 8 6 5 6
5 4 5 4 3 6 6 6 6 1 6 2 5 12 14 11 8 6 8 13 12 10 8 7 5 4 4 3 2 1 1 3 4 5 5 5 5 7 7 7 5 5 4 5
4 4 3 3 4 8 5 9 6 1 5 7 2 10 10 5 6 12 13 13 12 10 7 6 6 5 4 3 2 1 2 3 3 3 5 7 7 7 6 5 4 5 5 6
1 1 1 3 3 8 4 6 3 3 6 4 1 4 7 12 15 14 14 13 12 9 6 6 5 4 2 2 1 2 3 3 2 5 6 6 6 5 4 5 5 5 6 6
2 4 4 6 8 6 3 5 6 5 4 1 3 7 14 15 14 13 11 10 8 7 6 4 4 3 1 1 1 1 3 2 5 6 6 6 6 5 4 4 4 4 4 5
3 2 1 5 9 8 8 7 5 4 4 4 7 11 13 14 13 11 9 8 6 5 4 4 4 2 2 3 2 1 1 5 6 6 5 5 5 5 5 4 3 4 5 6
5 2 3 7 8 9 7 5 2 4 8 11 11 10 11 14 12 9 8 6 5 4 3 3 4 3 1 2 2 2 5 7 7 6 5 4 4 5 5 5 4 4 3 4
5 7 7 8 6 4 5 2 5 11 13 15 14 10 8 9 10 9 7 4 4 5 4 4 4 3 3 3 4 5 6 7 8 6 4 4 4 4 5 5 6 7 5 5
Wind_Direction
122 106 204 212 192 185 178 217 271 272 280 307 315 328 345 6 174 211 212 191 178 159 117 100 91 74 66 65 77 91 104 106 111 106 100 92 77 61 57 57 53 50 52 53
44 256 233 204 176 160 173 250 280 293 291 186 160 351 7 37 78 168 198 225 177 145 130 114 96 72 74 79 77 83 86 87 86 94 96 96 103 84 72 58 46 41 47 47
190 233 201 168 193 189 204 207 245 266 327 136 114 334 345 46 67 85 106 129 156 168 151 128 110 100 91 79 69 70 66 68 67 81 92 92 81 69 51 42 40 37 53 58
218 240 189 190 215 182 244 226 223 259 286 259 182 260 271 197 131 152 148 149 160 161 144 130 121 109 96 86 77 73 69 63 58 66 81 81 81 77 58 62 61 47 46 47
222 208 183 208 224 183 220 239 217 240 229 242 219 198 271 214 222 205 181 169 162 156 145 135 125 112 98 89 81 75 71 62 57 60 70 77 76 76 70 64 61 49 36 32
230 214 185 208 227 191 208 59 52 51 80 257 221 181 245 217 212 192 179 173 162 149 138 128 117 106 97 89 83 78 74 65 62 67 69 80 87 85 78 64 55 33 12 5
264 260 221 189 216 178 140 111 11 342 348 250 222 175 237 231 218 180 175 170 161 146 137 128 119 113 106 98 93 90 89 81 75 79 76 81 91 95 101 101 75 38 347 325
212 260 225 191 195 206 186 157 171 212 244 273 277 215 246 272 248 165 158 159 156 145 134 129 125 121 113 104 97 96 97 96 92 90 83 80 92 100 105 120 153 217 251 262
190 244 254 207 201 177 159 187 183 164 228 265 274 271 285 334 158 158 160 162 160 144 133 130 127 121 117 111 108 113 117 118 116 115 114 110 117 123 127 154 236 261 275 274
177 230 271 222 148 183 171 158 113 137 178 249 268 256 238 196 184 174 170 166 153 138 132 131 127 124 121 121 124 122 134 142 146 142 136 133 130 120 107 330 327 312 306 302
155 182 302 137 179 197 161 150 157 152 171 196 251 259 235 207 189 180 172 163 153 143 141 139 135 136 135 134 133 129 141 151 154 147 135 140 177 203 281 294 289 292 298 303
17 132 261 271 277 280 179 177 151 164 223 207 219 259 312 247 184 170 164 158 150 144 146 141 136 131 128 125 129 140 157 158 148 133 170 217 229 252 273 276 275 275 278 282
12 92 27 345 348 1 44 100 149 136 134 173 206 265 342 57 139 154 154 151 147 146 146 140 136 136 132 122 123 130 143 135 110 135 265 280 290 283 272 273 277 280 275 278
93 79 144 195 241 301 321 330 140 126 149 210 227 247 321 124 146 153 154 152 152 155 154 149 145 137 128 128 141 150 161 159 173 238 268 277 273 266 264 266 270 271 265 266
72 91 346 256 276 304 282 282 258 210 195 200 241 228 214 186 171 164 159 157 159 159 157 155 148 139 142 151 160 164 172 185 219 255 266 264 265 265 265 268 269 270 267 267
57 122 28 324 320 342 304 277 265 242 216 213 226 247 209 153 159 164 164 164 163 160 159 153 148 151 159 163 166 170 188 221 248 255 259 268 279 284 285 285 285 285 284 285
343 130 108 279 308 344 285 247 238 243 244 203 222 241 145 162 178 173 166 165 160 158 156 152 155 159 162 164 164 171 201 257 268 273 283 288 289 290 291 297 303 302 301 312
170 140 145 229 296 238 247 282 271 262 283 308 289 227 153 131 109 92 120 144 156 156 151 149 150 148 147 149 150 175 236 260 281 294 298 300 303 303 316 337 351 359 8 16
166 152 134 140 221 283 300 344 9 311 290 269 138 122 116 111 84 59 76 111 119 122 130 135 134 133 140 150 169 201 272 297 306 308 312 320 333 353 22 36 36 34 34 26
45 75 117 133 173 244 269 335 328 318 296 298 155 148 146 134 147 150 121 112 108 106 107 112 110 114 136 167 182 197 316 325 324 323 331 2 42 63 64 55 42 27 25 14
22 33 86 151 214 262 296 311 323 196 287 321 198 161 158 146 137 131 124 115 116 116 124 133 135 137 155 172 170 47 339 326 324 358 58 69 70 72 67 56 42 28 19 7
187 113 135 134 211 261 322 2 30 282 285 304 126 127 118 116 119 125 124 126 133 138 139 138 131 138 167 174 116 13 331 325 44 82 82 72 61 61 61 54 39 27 17 5
208 192 191 198 227 249 274 263 261 243 240 186 132 132 133 129 128 126 127 130 133 136 131 126 136 149 190 91 99 346 330 50 94 90 82 69 56 43 35 34 20 3 356 354
289 167 216 277 272 275 278 276 278 218 189 150 139 137 135 127 126 122 120 116 116 120 128 130 129 107 32 36 87 217 75 101 103 95 79 57 40 24 14 6 355 346 346 351
247 205 235 262 280 300 297 290 255 130 118 115 113 113 121 123 117 112 107 110 115 114 109 112 115 105 51 41 51 87 109 109 100 90 75 49 33 20 7 0 349 351 351 8
213 194 201 235 239 252 293 337 113 115 113 117 120 115 116 117 112 106 104 108 111 106 105 102 93 77 57 68 80 89 103 110 105 91 67 44 30 21 16 8 3 3 8 2